This is the latest recevied weather packets stored in our database for station/object WX5HOT. If no packets are shown the sender has not sent any weather packets the latest 10 day(s).
| Time | Temp. | Humidity | Pressure | Rain* | Wind** | Luminosity | Snow |
|---|---|---|---|---|---|---|---|
| 1777847533 | 23.89° C | 43% | 1066.4 hPa | 0 mm | - | 327 W/m² | - |
| 1777847229 | 23.89° C | 42% | 1066.4 hPa | 0 mm | - | 347 W/m² | - |
| 1777846928 | 23.89° C | 45% | 1066.5 hPa | 0 mm | - | 375 W/m² | - |
| 1777846626 | 23.33° C | 42% | 1066.5 hPa | 0 mm | - | 385 W/m² | - |
| 1777846323 | 23.33° C | 43% | 1066.4 hPa | 0 mm | - | 406 W/m² | - |
| 1777846019 | 23.89° C | 42% | 1066.4 hPa | 0 mm | - | 432 W/m² | - |
| 1777845716 | 22.78° C | 43% | 1066.6 hPa | 0 mm | - | 472 W/m² | - |
| 1777845413 | 23.33° C | 43% | 1066.4 hPa | 0 mm | - | 118 W/m² | - |
| 1777845109 | 23.89° C | 41% | 1066.6 hPa | 0 mm | - | 496 W/m² | - |
| 1777844809 | 23.33° C | 43% | 1066.8 hPa | 0 mm | - | 506 W/m² | - |
| 1777844504 | 23.89° C | 41% | 1066.6 hPa | 0 mm | - | 540 W/m² | - |
| 1777844204 | 23.89° C | 41% | 1066.9 hPa | 0 mm | - | 584 W/m² | - |
| 1777843899 | 23.89° C | 39% | 1067 hPa | 0 mm | - | 567 W/m² | - |
| 1777843597 | 23.89° C | 39% | 1067.2 hPa | 0 mm | - | 573 W/m² | - |
| 1777843295 | 23.89° C | 46% | 1067.2 hPa | 0 mm | - | 599 W/m² | - |
| 1777842992 | 23.33° C | 44% | 1067 hPa | 0 mm | - | 621 W/m² | - |
| 1777842687 | 23.33° C | 44% | 1067.1 hPa | 0 mm | - | 236 W/m² | - |
| 1777842384 | 23.33° C | 43% | 1067.3 hPa | 0 mm | - | 702 W/m² | - |
| 1777842081 | 23.89° C | 41% | 1067.1 hPa | 0 mm | - | 225 W/m² | - |
| 1777841776 | 23.33° C | 43% | 1067.4 hPa | 0 mm | - | 673 W/m² | - |
| 1777841473 | 23.33° C | 42% | 1067.6 hPa | 0 mm | - | 702 W/m² | - |
| 1777841170 | 22.78° C | 43% | 1067.9 hPa | 0 mm | - | 709 W/m² | - |
| 1777840867 | 22.78° C | 44% | 1067.8 hPa | 0 mm | - | 752 W/m² | - |
| 1777840564 | 23.33° C | 43% | 1067.6 hPa | 0 mm | - | 738 W/m² | - |
| 1777840261 | 23.33° C | 44% | 1067.9 hPa | 0 mm | - | 88 W/m² | - |
* Rain latest hour (hover to see other rain measurements)
** Current wind speed in m/s (hover to see current wind gust speed)